AirNav   Air Wisconsin pilot careers
 
 1038 users online  

18K Fowler Airport
Fowler, Kansas, USA

GOING TO FOWLER?


FAA INFORMATION EFFECTIVE 25 APRIL 2019

Location

FAA Identifier: 18K
Lat/Long: 37-23-03.4000N / 100-11-10.3000W
37-23.056667N / 100-11.171667W
37.3842778 / -100.1861944
(estimated)
Elevation: 2483 ft. / 757 m (estimated)
Variation: 08E (1985)
Time zone: UTC -5 (UTC -6 during Standard Time)
Zip code: 67844

Airport Operations

Airport use: Open to the public
Activation date: 08/1975
Control tower: no
ARTCC: KANSAS CITY CENTER
FSS: WICHITA FLIGHT SERVICE STATION
NOTAMs facility: ICT (NOTAM-D service available)
Attendance: UNATNDD
Wind indicator: yes
Segmented circle: no

Airport Communications

CTAF: 122.9
WX AWOS-3 at MEJ (10 nm SW): 119.425 (620-873-8447)

Nearby radio navigation aids

VOR radial/distance  VOR name  Freq  Var
DDCr189/29.3DODGE CITY VORTAC108.2008E

Airport Services

Parking: tiedowns

Runway Information

Runway 3/21

Dimensions: 2310 x 100 ft. / 704 x 30 m
Surface: turf, in fair condition
Runway edge markings: RWY 03 /21 MKD WITH SMALL RED REFLECTORS: SOLAR LIGHTS & RED CONES.
RUNWAY 3  RUNWAY 21
Latitude: 37-22.894000N37-23.220500N
Longitude: 100-11.293833W100-11.048333W
Traffic pattern: leftleft
Obstructions: 15 ft. road, 45 ft. from runway, 3:1 slope to clear
RWY 03 +28' POLES LGTD PLINE APRX 450' S OF SW END OF RWY.
15 ft. road, 150 ft. from runway, 10:1 slope to clear

Airport Ownership and Management from official FAA records

Ownership: Privately-owned
Owner: LARRY DEWELL
7009 COUNTY ROAD #27
FOWLER, KS 67844
Phone (620) 338-1576
Manager: LARRY DEWELL
7009 COUNTY ROAD #27
FOWLER, KS 67844
Phone 620-338-1576
OR 620-646-5761.

Airport Operational Statistics

Aircraft based on the field: 2
Single engine airplanes: 2
    
Aircraft operations: avg 83/month *
70% local general aviation
30% transient general aviation
* for 12-month period ending 28 August 2018

Instrument Procedures

There are no published instrument procedures at 18K.

Some nearby airports with instrument procedures:

KMEJ - Meade Municipal Airport (10 nm SW)
KDDC - Dodge City Regional Airport (25 nm NE)
K79 - Jetmore Municipal Airport (39 nm N)
KBFK - Buffalo Municipal Airport (41 nm SE)
KGCK - Garden City Regional Airport (41 nm NW)
 
Loc | Ops | Rwys | IFR | FBO | Links
Com | Nav | Svcs | Stats | Notes

Kansas City Aviation Department
 
Area around 18K (Fowler Airport)
 
Road maps at: MapQuest Bing Google
 
Aerial photo
WARNING: Photo may not be current or correct
Aerial photo of 18K (Fowler Airport)
Photo by Von Rothenberger
Photo taken 14-Aug-2010
looking north.

Do you have a better or more recent aerial photo of Fowler Airport that you would like to share? If so, please send us your photo.

 
Sectional chart

 
Airport distance calculator
Flying to Fowler Airport? Find the distance to fly.

From to 18K

Sunrise and sunset
Times for 21-May-2019
 Local
(UTC-5)
 Zulu
(UTC)
Morning civil twilight05:5910:59
Sunrise06:2811:28
Sunset20:4601:46
Evening civil twilight21:1602:16

Current date and time
Zulu (UTC)  22-May-2019 01:15:42
Local (UTC-5)  21-May-2019 20:15:42
 
METAR
KDDC 
25nm NE 
220052Z AUTO 28022G32KT 10SM SCT036 BKN110 12/06 A2941 RMK AO2 PK WND 28032/0049 SLP950 T01220061
K19S 
32nm W 
220055Z AUTO 30015KT 10SM SCT028 11/06 A2946 RMK AO2 T01140062
KGCK 
41nm NW 
220054Z 28018G25KT 10SM FEW032 SCT045 09/05 A2944 RMK AO2 PK WND 29032/0022 SLP964 T00940050
KLBL 
43nm SW 
220056Z AUTO 29015G22KT 10SM CLR 12/06 A2949 RMK AO2 PK WND 30026/0031 SLP975 T01220056
TAF
KDDC 
25nm NE 
211736Z 2118/2218 21016G24KT P6SM VCTS SCT020 BKN040CB FM212000 25021G31KT P6SM VCTS SCT040CB FM220100 27019G27KT P6SM SCT100 FM220800 27009KT P6SM FEW250
NOTAMs
Click for the latest NOTAMs
NOTAMs are issued by the DoD/FAA and will open in a separate window not controlled by AirNav.

 

 
 

Would you like to see your business listed on this page?

 If your business provides an interesting product or service to pilots, flight crews, aircraft, or users of the Fowler Airport, you should consider listing it here.  To start the listing process, click on the button below
 
Add a business
 

Other Pages about Fowler Airport

Update a link
 
Copyright © AirNav, LLC. All rights reserved. Privacy Policy  Contact